TimeMDT,TemperatureF,Dew PointF,Humidity,Sea Level PressureIn,VisibilityMPH,Wind Direction,Wind SpeedMPH,Gust SpeedMPH,PrecipitationIn,Events,Conditions,WindDirDegrees,DateUTC
12:53 AM,66.9,24.1,20,29.79,10.0,NNW,3.5,-,N/A,,Clear,330,2012-10-03 06:53:00
1:53 AM,64.0,25.0,23,29.80,10.0,West,6.9,-,N/A,,Clear,280,2012-10-03 07:53:00
2:53 AM,68.0,23.0,18,29.77,10.0,NW,11.5,-,N/A,,Clear,310,2012-10-03 08:53:00
3:53 AM,64.9,23.0,20,29.78,10.0,NW,8.1,-,N/A,,Clear,320,2012-10-03 09:53:00
4:53 AM,64.9,25.0,22,29.79,10.0,NW,10.4,-,N/A,,Clear,310,2012-10-03 10:53:00
5:53 AM,66.0,26.1,22,29.81,10.0,NNW,11.5,-,N/A,,Clear,330,2012-10-03 11:53:00
6:53 AM,66.0,27.0,23,29.83,10.0,NNW,11.5,20.7,N/A,,Clear,330,2012-10-03 12:53:00
7:53 AM,66.9,27.0,22,29.84,10.0,NW,11.5,-,N/A,,Clear,310,2012-10-03 13:53:00
8:53 AM,73.9,27.0,18,29.85,10.0,NW,15.0,21.9,N/A,,Clear,320,2012-10-03 14:53:00
9:53 AM,79.0,27.0,15,29.87,10.0,NNW,10.4,19.6,N/A,,Clear,340,2012-10-03 15:53:00
10:53 AM,84.0,26.1,12,29.85,10.0,NNW,13.8,24.2,N/A,,Clear,330,2012-10-03 16:53:00
11:53 AM,84.9,26.1,12,29.84,10.0,NW,9.2,18.4,N/A,,Clear,320,2012-10-03 17:53:00
12:53 PM,87.1,26.1,11,29.80,10.0,NW,11.5,27.6,N/A,,Clear,310,2012-10-03 18:53:00
1:53 PM,91.0,25.0,9,29.77,10.0,WNW,12.7,21.9,N/A,,Clear,300,2012-10-03 19:53:00
2:53 PM,91.0,23.0,8,29.73,10.0,NW,10.4,17.3,N/A,,Clear,310,2012-10-03 20:53:00
3:53 PM,91.0,23.0,8,29.74,10.0,WNW,6.9,-,N/A,,Clear,290,2012-10-03 21:53:00
4:53 PM,91.9,21.9,8,29.73,10.0,West,13.8,17.3,N/A,,Clear,270,2012-10-03 22:53:00
5:53 PM,90.0,24.1,9,29.74,10.0,West,6.9,16.1,N/A,,Clear,260,2012-10-03 23:53:00
6:53 PM,86.0,19.9,9,29.77,10.0,NW,9.2,-,N/A,,Clear,310,2012-10-04 00:53:00
7:53 PM,82.9,19.0,9,29.81,10.0,West,9.2,-,N/A,,Clear,280,2012-10-04 01:53:00
8:53 PM,78.1,24.1,14,29.83,10.0,West,6.9,-,N/A,,Clear,270,2012-10-04 02:53:00
9:53 PM,72.0,21.0,15,29.84,10.0,WNW,8.1,-,N/A,,Clear,300,2012-10-04 03:53:00
10:53 PM,72.0,25.0,17,29.86,10.0,WNW,9.2,-,N/A,,Clear,290,2012-10-04 04:53:00
11:53 PM,69.1,23.0,18,29.88,10.0,NW,10.4,-,N/A,,Clear,310,2012-10-04 05:53:00